Vorticity
nan nan nan nan nan nan nan nan nan nan nan nan nan nan nan nan nan nan nan nan nan nan nan nan nan nan nan nan nan nan nan nan nan
nan 5 5 5 5 5 6 6 6 6 7 8 8 6 9 11 9 8 9 7 8 6 5 6 5 4 6 7 6 7 7 7 nan
nan 4 4 5 5 5 5 5 6 6 6 7 6 7 9 10 11 10 8 7 8 8 7 6 6 5 5 6 7 9 8 8 nan
nan 4 4 6 6 5 6 5 6 5 6 7 6 6 7 13 9 9 10 4 7 10 7 6 7 6 6 9 11 9 8 9 nan
nan 4 4 5 6 5 6 5 6 7 8 7 6 7 15 11 9 11 6 3 5 8 9 10 8 7 7 9 11 9 8 8 nan
nan 3 2 4 5 5 6 6 6 10 10 7 7 14 13 7 10 6 0 5 8 8 9 10 10 9 8 8 8 8 9 8 nan
nan 4 5 6 6 7 6 8 10 11 11 7 8 10 5 9 8 4 2 4 6 8 9 10 10 11 9 7 9 10 9 9 nan
nan 7 6 5 8 8 6 10 7 6 7 6 6 5 8 9 8 4 4 6 7 8 8 9 10 11 10 8 9 11 10 9 nan
nan 7 6 8 7 6 9 6 4 7 6 7 6 7 8 6 7 8 6 6 6 8 9 8 9 10 10 10 10 12 12 11 nan
nan 7 7 7 7 7 7 7 7 7 8 8 7 7 7 7 7 7 9 7 7 7 9 10 8 9 10 10 11 12 12 11 nan
nan 7 7 7 7 6 7 7 7 8 8 6 8 9 8 8 6 6 9 11 11 9 9 10 10 8 10 11 9 12 13 12 nan
nan 8 7 7 6 7 8 8 9 8 7 8 10 9 9 9 8 7 7 12 15 14 10 10 11 11 9 9 12 10 14 11 nan
nan 8 7 7 8 9 8 8 8 8 8 9 9 8 9 8 11 8 7 7 10 14 14 12 11 12 10 9 10 12 12 20 nan
nan 9 7 8 9 8 8 7 7 8 8 8 8 8 9 10 10 9 11 10 10 10 14 18 17 12 11 11 10 14 14 13 nan
nan 9 7 9 9 7 6 7 8 8 8 9 9 10 8 12 11 15 14 11 12 8 10 16 17 17 15 14 13 16 8 6 nan
nan 8 8 8 8 7 7 8 9 9 9 9 10 13 11 12 10 8 11 11 10 7 8 8 8 9 18 22 15 14 12 10 nan
nan 8 8 8 8 8 8 8 9 8 8 7 11 12 19 7 4 12 8 8 6 8 8 5 7 9 13 12 16 20 15 13 nan
nan 8 8 8 9 8 8 8 8 9 8 11 9 6 2 6 6 10 10 6 10 7 7 9 8 7 8 8 12 19 16 12 nan
nan 9 8 9 9 8 8 7 9 9 8 10 9 7 5 5 7 5 9 6 8 10 7 9 8 9 8 10 11 19 19 11 nan
nan nan nan nan nan nan nan nan nan nan nan nan nan nan nan nan nan nan nan nan nan nan nan nan nan nan nan nan nan nan nan nan nan
CAPE
0 0 0 0 0 0 2 4 4 4 4 2 6 7 11 2 474 430 346 358 261 250 634 663 832 911 857 849 913 1009 1073 1148 1232
0 0 0 0 0 0 0 0 0 0 3 4 4 3 2 0 5 258 475 297 658 560 681 677 753 861 924 1012 951 945 1082 1138 1181
0 0 0 0 0 0 0 0 0 0 0 0 2 4 4 0 0 3 202 587 517 685 765 607 656 827 1007 905 950 1132 1084 1106 1188
0 0 0 0 0 0 0 0 0 0 0 0 0 0 0 0 0 4 12 349 605 691 748 763 756 723 1379 1234 1196 1248 1373 1323 1204
0 0 0 0 0 0 0 0 0 0 0 0 0 0 0 0 0 0 0 14 234 598 516 643 648 857 1318 1350 1398 1320 1451 1616 1280
0 0 0 0 0 0 0 0 0 0 0 0 0 0 0 0 0 0 0 2 22 66 279 523 664 739 1242 1355 1385 1497 1454 1660 1478
0 0 0 0 0 0 0 0 0 0 0 0 0 0 0 0 0 0 0 0 3 18 36 274 448 790 1213 1259 1381 1537 1509 1562 1522
0 0 0 0 0 0 0 0 0 0 0 0 0 0 0 0 0 0 0 0 0 0 18 37 234 383 984 1005 1105 1438 1475 1510 1436
0 0 0 0 0 0 0 0 0 0 0 0 0 0 0 0 0 0 0 0 0 0 0 22 28 183 325 722 1243 1272 1409 1420 1283
0 0 0 0 0 0 0 0 0 0 0 0 0 0 0 0 0 0 0 0 0 0 0 0 26 40 207 370 981 1196 1257 1293 1216
0 0 0 0 0 0 0 0 0 0 0 0 0 0 0 0 0 0 0 0 0 0 0 0 1 27 67 298 536 1186 1185 1288 1221
0 0 0 0 0 0 0 0 0 0 0 0 0 0 0 0 0 0 0 0 0 0 0 0 0 4 76 123 317 665 1156 1356 1139
0 0 0 0 0 0 0 0 0 0 0 0 0 0 0 0 0 0 0 0 0 0 0 2 3 0 54 167 175 289 678 699 841
0 0 0 0 0 0 0 0 0 0 0 0 0 0 0 0 0 0 0 0 0 58 168 239 102 26 29 119 200 193 236 97 41
0 0 0 0 0 0 0 0 0 0 0 0 0 0 0 0 0 0 0 13 149 196 205 200 250 109 168 280 325 343 356 64 116
0 0 0 0 0 0 0 0 0 0 0 1 0 0 0 0 0 11 16 22 5 0 11 2 124 29 123 284 340 323 286 237 83
0 0 0 0 0 0 0 0 0 2 3 4 8 0 0 0 0 0 0 0 7 0 9 0 3 0 3 75 110 247 313 362 220
0 0 0 0 0 0 0 0 0 1 1 6 7 11 0 9 0 0 0 0 0 21 10 0 1 0 5 15 188 210 237 288 312
0 0 0 0 0 0 0 0 0 4 4 7 10 10 20 22 14 1 0 1 12 27 31 0 1 0 0 6 36 81 304 283 305
0 0 0 0 0 0 0 0 0 3 7 8 10 7 14 14 22 35 4 2 2 7 38 28 6 0 0 25 15 12 56 289 155